Date,TemperatureHighF,TemperatureAvgF,TemperatureLowF,DewpointHighF,DewpointAvgF,DewpointLowF,HumidityHigh,HumidityAvg,HumidityLow,PressureMaxIn,PressureMinIn,WindSpeedMaxMPH,WindSpeedAvgMPH,GustSpeedMaxMPH,PrecipitationSumIn
2013-8-1,75.8,69.5,63.4,61.7,54.6,46.6,84,61,39,30.00,29.89,17,11,25,0.00
2013-8-2,77.7,69.9,63.2,64.6,57.5,50.9,96,67,40,29.96,29.82,19,10,27,0.09
2013-8-3,74.7,68.2,61.6,54.9,51.1,45.1,77,55,34,30.13,29.96,15,7,21,0.00
2013-8-4,72.6,66.2,59.1,58.0,52.4,40.9,86,62,32,30.22,30.10,12,6,16,0.00
2013-8-5,69.7,63.7,58.2,64.4,58.6,54.5,96,83,67,30.10,29.85,21,11,26,0.02
2013-8-6,81.1,72.4,65.2,70.4,66.2,64.0,98,81,59,29.87,29.78,15,8,19,0.00
2013-8-7,75.9,72.5,67.8,71.6,64.3,59.0,94,75,57,29.97,29.74,20,10,27,0.00
2013-8-8,75.8,68.7,61.4,62.1,58.7,50.5,93,71,47,30.05,29.97,14,7,17,0.00
2013-8-9,77.2,69.7,63.1,61.4,56.0,50.6,78,62,41,30.06,29.97,18,10,23,0.00
2013-8-10,73.0,67.3,60.3,56.1,53.2,49.5,79,61,46,30.15,30.06,9,6,0,0.00
2013-8-11,73.8,66.9,60.7,67.1,59.4,52.0,95,76,59,30.13,30.02,12,6,19,0.08
2013-8-12,77.6,70.5,65.9,67.1,62.3,56.0,97,77,49,30.03,29.91,17,7,22,0.25
2013-8-13,68.2,62.3,55.0,57.5,47.8,43.4,85,59,42,30.15,29.97,16,10,21,0.00
2013-8-14,71.5,62.9,54.2,53.7,49.8,45.7,91,63,40,30.22,30.11,13,5,0,0.00
2013-8-15,74.5,67.1,59.0,53.8,50.1,43.0,75,55,33,30.14,30.08,14,7,18,0.00
2013-8-16,77.9,70.0,61.6,57.3,52.3,47.5,77,54,34,30.18,30.12,12,6,0,0.00
2013-8-17,78.3,70.6,61.8,61.1,53.5,47.3,86,55,34,30.24,30.15,11,6,0,0.00
2013-8-18,79.0,70.4,62.1,59.0,53.6,46.1,77,56,34,30.21,30.09,16,7,17,0.00
2013-8-19,79.6,72.2,62.3,61.0,57.6,54.2,80,60,44,30.09,30.02,18,10,22,0.00
2013-8-20,83.3,74.8,66.4,64.4,62.3,58.8,88,66,43,30.06,29.99,19,13,24,0.00
2013-8-21,86.4,77.9,69.4,69.4,66.2,64.0,83,67,49,30.01,29.91,27,14,34,0.00
2013-8-22,77.5,72.2,67.5,70.2,67.7,65.5,95,85,72,30.14,29.98,23,7,41,0.64
2013-8-23,79.4,71.6,65.2,66.7,56.9,53.8,89,60,42,30.18,30.11,14,8,18,0.00
2013-8-24,80.8,71.4,60.8,66.3,60.1,52.4,81,67,55,30.24,30.15,17,11,21,0.00
2013-8-25,86.2,77.5,68.5,68.8,65.2,61.7,83,66,48,30.18,30.08,23,16,29,0.00
2013-8-26,89.0,79.3,72.3,73.3,68.7,64.3,78,70,55,30.12,29.95,21,13,30,0.00
2013-8-27,92.1,83.0,75.7,73.4,70.5,68.2,81,66,49,29.96,29.80,23,14,31,0.00
2013-8-28,83.3,76.4,70.8,74.5,70.1,67.6,98,81,64,30.05,29.84,13,8,16,0.00
2013-8-29,85.2,76.4,68.2,69.0,66.2,61.3,95,72,49,30.08,29.96,15,9,19,0.00
2013-8-30,90.7,78.7,70.8,75.4,70.9,66.9,94,77,54,29.96,29.77,18,11,24,0.00
2013-8-31,78.1,71.6,66.1,68.4,64.2,61.1,90,77,62,29.88,29.78,18,7,23,0.00